Change the Weather History Date:

Saturday, October 8, 2011

  Actual Average Record
Temperature  
Mean Temperature 40 °F 49 °F  
Max Temperature 53 °F 65 °F 80 °F (1965)
Min Temperature 27 °F 34 °F 21 °F (1900)
Degree Days  
Heating Degree Days 25 16  
Month to date heating degree days 143 115  
Since 1 July heating degree days 349 432  
Cooling Degree Days 0 0  
Month to date cooling degree days 0 0  
Year to date cooling degree days 170 117  
Moisture  
Dew Point 26 °F    
Average Humidity 62    
Maximum Humidity 82    
Minimum Humidity 41    
Precipitation  
Precipitation 0.00 in 0.05 in 1.36 in (1961)
Month to date precipitation 1.68 0.47  
Year to date precipitation 16.38 17.04  
Snow  
Snow 0.00 in 0.00 in 5.00 in (1961)
Month to date snowfall T 0.1  
Since 1 July snowfall T 0.1  
Snow Depth 0.00 in    
Sea Level Pressure  
Sea Level Pressure 30.04 in    
Wind  
Wind Speed 5 mph (ENE)    
Max Wind Speed 15 mph    
Max Gust Speed 21 mph    
Visibility 10 miles    
Events      
T = Trace of Precipitation, MM = Missing Value Source: NWS Daily Summary

Daily Weather History Graph

Daily Weather History Graph

Search for Another Location

Airport or City:

Trip Planner

Search our weather history database for the weather conditions in past years. The results will help you decide how hot, cold, wet, or windy it might be!

Date:

Astronomy

Oct. 08, 2011 Rise Set
Actual Time 6:26 AM MST 6:01 PM MST
Civil Twilight 6:01 AM MST 6:26 PM MST
Nautical Twilight 5:32 AM MST 6:55 PM MST
Astronomical Twilight 5:02 AM MST 7:25 PM MST
Moon 4:08 PM MST (10/8) 3:23 AM MST (10/8)
Length of Visible Light 12h 25m
Length of Day
11h 34m
Waxing Gibbous, 90% of the Moon is Illuminated
Oct 8
Waxing Gibbous
Oct 11
Full
Oct 19
Last Quarter
Oct 26
New
Nov 2
First Quarter

Hourly Weather History & Observations

Time (MST) Temp. Windchill Dew Point Humidity Pressure Visibility Wind Dir Wind Speed Gust Speed Precip Events Conditions
12:57 AM 30.9 °F - 21.0 °F 67% 30.04 in 10.0 mi Calm Calm - N/A   Clear
1:57 AM 28.9 °F 25.2 °F 21.0 °F 72% 30.06 in 10.0 mi West 3.5 mph - N/A   Clear
2:57 AM 28.0 °F 22.8 °F 19.9 °F 72% 30.05 in 10.0 mi West 4.6 mph - N/A   Clear
3:57 AM 30.0 °F 25.2 °F 19.9 °F 66% 30.02 in 10.0 mi SSW 4.6 mph - N/A   Clear
4:57 AM 28.9 °F 25.2 °F 21.0 °F 72% 30.02 in 10.0 mi SW 3.5 mph - N/A   Clear
5:57 AM 30.9 °F 23.5 °F 21.9 °F 69% 30.02 in 10.0 mi SW 8.1 mph - N/A   Clear
6:57 AM 34.0 °F 28.0 °F 21.9 °F 61% 30.04 in 10.0 mi WSW 6.9 mph - N/A   Clear
7:57 AM 37.9 °F 35.5 °F 25.0 °F 60% 30.05 in 10.0 mi Variable 3.5 mph - N/A   Clear
8:57 AM 43.0 °F 40.3 °F 26.1 °F 51% 30.05 in 10.0 mi WNW 4.6 mph - N/A   Clear
9:57 AM 46.0 °F 43.1 °F 27.0 °F 47% 30.05 in 10.0 mi NE 5.8 mph - N/A   Clear
10:57 AM 48.9 °F - 27.0 °F 43% 30.02 in 10.0 mi Variable 3.5 mph - N/A   Scattered Clouds
11:57 AM 48.9 °F - 28.0 °F 44% 30.02 in 10.0 mi East 9.2 mph 16.1 mph N/A   Scattered Clouds
12:57 PM 51.1 °F - 28.9 °F 43% 29.97 in 10.0 mi ENE 6.9 mph - N/A   Overcast
1:57 PM 51.1 °F - 28.9 °F 43% 29.97 in 10.0 mi NE 8.1 mph 18.4 mph N/A   Overcast
2:57 PM 52.0 °F - 30.0 °F 43% 29.98 in 10.0 mi NE 9.2 mph - N/A   Mostly Cloudy
3:57 PM 50.0 °F - 28.9 °F 44% 30.00 in 10.0 mi East 4.6 mph - N/A   Overcast
4:57 PM 48.0 °F - 28.9 °F 48% 30.02 in 10.0 mi ENE 9.2 mph - N/A   Partly Cloudy
5:57 PM 46.9 °F - 28.9 °F 50% 30.04 in 10.0 mi ENE 10.4 mph - N/A   Overcast
6:57 PM 43.0 °F 38.8 °F 28.9 °F 58% 30.06 in 10.0 mi ENE 6.9 mph - N/A   Clear
7:57 PM 42.1 °F 39.2 °F 28.9 °F 60% 30.07 in 10.0 mi ENE 4.6 mph - N/A   Clear
8:57 PM 37.0 °F - 28.9 °F 73% 30.09 in 10.0 mi Calm Calm - N/A   Clear
9:57 PM 34.0 °F - 28.0 °F 79% 30.09 in 10.0 mi Calm Calm - N/A   Clear
10:57 PM 34.0 °F 29.8 °F 28.9 °F 82% 30.06 in 10.0 mi ENE 4.6 mph - N/A   Clear
11:57 PM 32.0 °F - 28.0 °F 85% 30.07 in 10.0 mi Calm Calm - N/A   Clear